Eureka Weather Center

Moon Phase Calendar



Online Cameras

 


      

Current Conditions in Bayview
11/30/2021 4:50:44 AM

48°F
Feels Like 47
Clear
Humidity
96%
Pressure
30.24"
Wind
3.9 mph (E)
Dew Point
47°F
UV Index
0/10 (Low)
Visibility
6 mi

Hourly Forecast

Date & Time Tue, Nov 30
4:00 AM
Tue, Nov 30
5:00 AM
Tue, Nov 30
6:00 AM
Tue, Nov 30
7:00 AM
Tue, Nov 30
8:00 AM
Tue, Nov 30
9:00 AM
Tue, Nov 30
10:00 AM
Tue, Nov 30
11:00 AM
Tue, Nov 30
12:00 PM
Tue, Nov 30
1:00 PM
Tue, Nov 30
2:00 PM
Tue, Nov 30
3:00 PM
Tue, Nov 30
4:00 PM
Tue, Nov 30
5:00 PM
Tue, Nov 30
6:00 PM
Tue, Nov 30
7:00 PM
Tue, Nov 30
8:00 PM
Tue, Nov 30
9:00 PM
Tue, Nov 30
10:00 PM
Tue, Nov 30
11:00 PM
Wed, Dec 1
12:00 AM
Wed, Dec 1
1:00 AM
Wed, Dec 1
2:00 AM
Wed, Dec 1
3:00 AM
Wed, Dec 1
4:00 AM
Wed, Dec 1
5:00 AM
Wed, Dec 1
6:00 AM
Wed, Dec 1
7:00 AM
Wed, Dec 1
8:00 AM
Wed, Dec 1
9:00 AM
Wed, Dec 1
10:00 AM
Wed, Dec 1
11:00 AM
Wed, Dec 1
12:00 PM
Wed, Dec 1
1:00 PM
Wed, Dec 1
2:00 PM
Wed, Dec 1
3:00 PM
Wed, Dec 1
4:00 PM
Wed, Dec 1
5:00 PM
Wed, Dec 1
6:00 PM
Wed, Dec 1
7:00 PM
Wed, Dec 1
8:00 PM
Wed, Dec 1
9:00 PM
Wed, Dec 1
10:00 PM
Wed, Dec 1
11:00 PM
Thu, Dec 2
12:00 AM
Thu, Dec 2
1:00 AM
Thu, Dec 2
2:00 AM
Thu, Dec 2
3:00 AM
Condition
Clear

Clear

Clear

Clear

Clear

Clear

Clear

Clear

Clear

Clear

Clear

Clear

Clear

Clouds

Clouds

Clouds

Clouds

Clouds

Clouds

Clear

Clear

Clear

Clear

Clear

Clear

Clear

Clear

Clear

Clear

Clear

Clear

Clear

Clear

Clear

Clear

Clear

Clear

Clear

Clear

Clear

Clear

Clear

Clear

Clear

Clear

Clear

Clear

Clear
Temperature 49°F48°F49°F49°F49°F53°F56°F58°F58°F58°F58°F58°F55°F52°F52°F52°F52°F53°F52°F53°F54°F54°F54°F54°F55°F55°F55°F55°F55°F59°F61°F61°F62°F62°F62°F60°F58°F55°F55°F55°F55°F55°F55°F54°F54°F54°F53°F53°F
Feels Like 47°F47°F48°F47°F48°F51°F54°F56°F56°F57°F57°F56°F54°F51°F51°F51°F51°F51°F51°F51°F52°F52°F52°F52°F53°F53°F53°F53°F53°F57°F59°F60°F61°F61°F60°F59°F57°F54°F54°F54°F54°F53°F53°F53°F53°F53°F52°F52°F
Cloudiness 0%0%0%0%1%1%1%0%0%1%3%3%5%15%28%35%29%24%21%6%6%8%6%5%5%2%8%7%5%4%4%0%0%0%0%0%0%0%0%0%0%0%0%0%0%0%0%0%
Visibility 6 mi6 mi6 mi6 mi6 mi6 mi6 mi6 mi6 mi6 mi6 mi6 mi6 mi6 mi6 mi6 mi6 mi6 mi6 mi6 mi6 mi6 mi6 mi6 mi6 mi6 mi6 mi6 mi6 mi6 mi6 mi6 mi6 mi6 mi6 mi6 mi6 mi6 mi6 mi6 mi6 mi6 mi6 mi6 mi6 mi6 mi6 mi6 mi
Precipitation 0%0%0%0%0%0%0%0%0%0%0%0%0%0%0%0%0%0%0%0%0%0%0%0%0%0%0%0%0%0%0%0%0%0%0%0%0%0%0%0%0%0%0%0%0%0%0%0%
Humidity 91%96%90%85%78%64%53%52%57%61%61%67%82%90%86%83%79%79%74%66%63%61%58%56%56%55%56%56%54%54%53%55%54%54%57%62%70%76%75%73%74%76%78%81%85%85%85%86%
Dew Point 46°F47°F46°F45°F43°F41°F38°F39°F41°F43°F43°F45°F49°F48°F47°F46°F45°F45°F43°F41°F40°F40°F39°F38°F38°F38°F38°F38°F38°F41°F42°F43°F44°F44°F45°F46°F47°F47°F46°F46°F46°F46°F47°F48°F48°F48°F48°F48°F
Pressure 30.24"30.24"30.24"30.24"30.27"30.24"30.24"30.24"30.24"30.21"30.18"30.18"30.18"30.18"30.18"30.18"30.18"30.18"30.15"30.15"30.12"30.12"30.09"30.09"30.09"30.09"30.09"30.09"30.12"30.12"30.12"30.12"30.12"30.09"30.06"30.06"30.06"30.09"30.09"30.09"30.09"30.09"30.12"30.12"30.12"30.09"30.09"30.12"
Wind Speed 4.2 mph3.9 mph3.5 mph5.9 mph4.9 mph2.5 mph3.3 mph6.8 mph8.3 mph8.4 mph6.8 mph8 mph8.6 mph6.4 mph3.7 mph3.2 mph2.4 mph3.5 mph4.6 mph4.2 mph4.3 mph4.6 mph4.9 mph4.5 mph4 mph3.4 mph3.4 mph2.2 mph4 mph1.5 mph2.7 mph3.4 mph2.5 mph4 mph4.9 mph3.7 mph4 mph3.5 mph2.9 mph2.5 mph2.8 mph2.4 mph1.1 mph2.5 mph1.7 mph1.2 mph0.9 mph4.1 mph
Wind
Direction
79°
E
86°
E
22°
NNE
27°
NNE
84°
E
98°
E

N
345°
NNW
350°
N
357°
N

N
350°
N

N
30°
NNE
49°
NE
52°
NE
55°
NE
46°
NE
94°
E
76°
ENE
51°
NE
54°
NE
55°
NE
74°
ENE
83°
E
64°
ENE
93°
E
109°
ESE
134°
SE
196°
SSW
281°
W
318°
NW
330°
NNW
333°
NNW
334°
NNW
347°
NNW
334°
NNW
23°
NNE
54°
NE
53°
NE
11°
N
52°
NE
26°
NNE
340°
NNW
32°
NNE
93°
E

N

N

Daily Forecast

Date High Low Precip. Humidity
Today
Nov 30

Clear
58 °F
48 °F
0%
57%
Wednesday
Dec 1

Clear
62 °F
54 °F
0%
54%
Thursday
Dec 2

Clear
58 °F
52 °F
0%
80%
Friday
Dec 3

Clear
59 °F
51 °F
0%
76%
Saturday
Dec 4

Clouds
58 °F
51 °F
0%
69%
Sunday
Dec 5

Clouds
59 °F
50 °F
0%
54%
Monday
Dec 6

Rain
57 °F
52 °F
100%
92%
Tuesday
Dec 7

Rain
53 °F
48 °F
63%
78%
Wednesday
Dec 8

Rain
56 °F
46 °F
34%
57%
Thursday
Dec 9

Rain
56 °F
44 °F
100%
88%
Friday
Dec 10

Rain
46 °F
41 °F
100%
65%
Saturday
Dec 11

Clouds
47 °F
39 °F
15%
62%
Sunday
Dec 12

Rain
48 °F
42 °F
100%
76%
Monday
Dec 13

Rain
51 °F
47 °F
100%
79%
Tuesday
Dec 14

Rain
53 °F
47 °F
100%
85%
Wednesday
Dec 15

Rain
49 °F
41 °F
100%
92%

Temperature 8-14 Day Outlook



Precipitation 8-14 Day Outlook




Quick Links
Eureka News
Eureka Photos
Eureka Videos




About Us
Contact Us
Site Map
Search Site
Advertise With Us
   
Eureka.USCoast.info
THE EUREKA WEBSITE

Copyright 2021, Coastal Town
Privacy    |    Legal